TimeEDT,TemperatureF,Dew PointF,Humidity,Sea Level PressureIn,VisibilityMPH,Wind Direction,Wind SpeedMPH,Gust SpeedMPH,PrecipitationIn,Events,Conditions,WindDirDegrees,DateUTC
12:51 AM,48.9,42.1,77,30.30,10.0,ESE,5.8,-,N/A,,Clear,110,2013-05-05 04:51:00
1:51 AM,48.9,41.0,74,30.28,10.0,East,5.8,-,N/A,,Partly Cloudy,90,2013-05-05 05:51:00
2:51 AM,48.0,39.9,74,30.27,10.0,ENE,5.8,-,N/A,,Scattered Clouds,70,2013-05-05 06:51:00
3:48 AM,48.2,39.2,71,30.27,10.0,ENE,8.1,-,N/A,,Mostly Cloudy,70,2013-05-05 07:48:00
3:51 AM,48.0,39.0,71,30.27,10.0,East,8.1,-,N/A,,Mostly Cloudy,80,2013-05-05 07:51:00
4:51 AM,46.9,37.9,71,30.27,10.0,ENE,6.9,-,N/A,,Mostly Cloudy,70,2013-05-05 08:51:00
5:51 AM,48.0,39.0,71,30.27,10.0,NNE,9.2,-,N/A,,Mostly Cloudy,20,2013-05-05 09:51:00
6:51 AM,46.9,41.0,80,30.28,10.0,NNE,9.2,-,N/A,,Mostly Cloudy,20,2013-05-05 10:51:00
7:51 AM,51.1,39.9,66,30.28,10.0,NE,6.9,-,N/A,,Mostly Cloudy,40,2013-05-05 11:51:00
8:17 AM,50.0,37.4,62,30.29,10.0,NE,8.1,-,N/A,,Scattered Clouds,50,2013-05-05 12:17:00
8:51 AM,51.1,37.9,61,30.29,10.0,NE,9.2,-,N/A,,Scattered Clouds,40,2013-05-05 12:51:00
9:51 AM,53.1,37.0,55,30.29,10.0,East,6.9,-,N/A,,Partly Cloudy,90,2013-05-05 13:51:00
10:51 AM,54.0,37.0,53,30.29,10.0,ESE,4.6,-,N/A,,Partly Cloudy,110,2013-05-05 14:51:00
11:51 AM,57.9,37.0,46,30.28,10.0,Variable,4.6,-,N/A,,Partly Cloudy,0,2013-05-05 15:51:00
12:51 PM,57.0,39.9,53,30.27,10.0,Variable,6.9,-,N/A,,Partly Cloudy,0,2013-05-05 16:51:00
1:51 PM,55.9,41.0,57,30.27,10.0,SE,9.2,-,N/A,,Partly Cloudy,140,2013-05-05 17:51:00
2:51 PM,57.0,42.1,57,30.26,10.0,SSE,13.8,17.3,N/A,,Partly Cloudy,150,2013-05-05 18:51:00
3:51 PM,55.9,42.1,60,30.26,10.0,SSE,11.5,16.1,N/A,,Scattered Clouds,150,2013-05-05 19:51:00
4:51 PM,55.0,42.1,62,30.24,10.0,SE,11.5,18.4,N/A,,Partly Cloudy,140,2013-05-05 20:51:00
5:51 PM,55.4,42.8,63,30.24,10.0,SSE,9.2,-,N/A,,Partly Cloudy,160,2013-05-05 21:51:00
6:51 PM,53.1,42.1,66,30.24,10.0,SE,8.1,-,N/A,,Partly Cloudy,140,2013-05-05 22:51:00
7:51 PM,52.0,42.1,69,30.25,10.0,SE,8.1,-,N/A,,Partly Cloudy,140,2013-05-05 23:51:00
8:51 PM,51.1,43.0,74,30.26,10.0,SE,4.6,-,N/A,,Partly Cloudy,140,2013-05-06 00:51:00
9:51 PM,50.0,43.0,77,30.26,10.0,Variable,5.8,-,N/A,,Partly Cloudy,0,2013-05-06 01:51:00
10:51 PM,50.0,43.0,77,30.25,10.0,ESE,6.9,-,N/A,,Partly Cloudy,110,2013-05-06 02:51:00
11:51 PM,50.0,43.0,77,30.25,10.0,ESE,5.8,-,N/A,,Partly Cloudy,120,2013-05-06 03:51:00